M-CUBED/EXP-1 PRIME

导读

M-CUBED/EXP-1 PRIME是美国于2011年10月28日发射的一颗微小卫星,由密歇根大学学生主导研制,属于NASA的教育发射计划。卫星主要任务是验证新型成像技术与航天器自主协作,展示小型卫星平台开展空间科学观测的能力,同时为学生团队提供航天工程实践机会,推动低成本航天技术创新与人才培养。

Basic Information
目录编号:
37855
目录名称:
M-CUBED/EXP-1 PRIME
国际标识:
2011-061F
轨道中心:
EARTH
卫星名称:
M-CUBED/EXP-1 PRIME
卫星全名:
--
卫星状态:
已陨落 最后检测时间 2024-06-30
发射日期:
2011-10-28 UTC
国别 :
美国 (US)
星等 :
--
Orbit Information
数据来源 国际轨道数据
星历时间: 2024-06-30T03:44:09+0800
轨道信息已过期744天
半长轴: 6566.169km
偏心率: 0.0019276
轨道倾角: 101.669°
近地点辐角 270.181°
升交点赤经 18.482°
平近点角 89.726°
近地点: 175.377km
远地点: 200.691km
周期: 88.253分钟
每日圈数: 16.31679
Detailed Information
使用方式:
暂无